CDG8042 ZSJN-ZYTL

Flight info

Callsign CDG8042
Flight time 0h 50m
Altitude 24600
Route BASOV W4 HCH W173 NIXEP
Aircraft B738/M-SDE2E3FGHIRWXY/LB1

Departure

Time 2026-04-22 06:34
Airport Jinan Yaoqiang International Airport (ZSJN)

Arrival

Time 2026-04-22 07:25
Airport Dalian Zhoushuizi International Airport (ZYTL)
Time Latitude Longitude Altitude Speed Heading
2026-04-22 06:08 36.85105 117.20892 83 ft 0 kts 270°
2026-04-22 06:24 36.85105 117.20905 83 ft 2 kts 271°
2026-04-22 06:24 36.85105 117.20924 83 ft 2 kts 270°
2026-04-22 06:25 36.85105 117.20942 83 ft 2 kts 270°
2026-04-22 06:25 36.85104 117.20954 83 ft 2 kts 270°
2026-04-22 06:25 36.85108 117.20972 83 ft 2 kts 234°
2026-04-22 06:25 36.85119 117.20985 83 ft 2 kts 205°
2026-04-22 06:26 36.85131 117.20989 83 ft 0 kts 182°
2026-04-22 06:26 36.85138 117.20988 83 ft 1 kts 179°
2026-04-22 06:28 36.85130 117.20988 83 ft 2 kts 183°
2026-04-22 06:28 36.85088 117.20985 83 ft 9 kts 182°
2026-04-22 06:28 36.85019 117.20985 83 ft 9 kts 180°
2026-04-22 06:29 36.84954 117.20985 83 ft 8 kts 180°
2026-04-22 06:29 36.84899 117.20999 83 ft 7 kts 138°
2026-04-22 06:29 36.84872 117.21058 83 ft 7 kts 114°
2026-04-22 06:29 36.84845 117.21134 83 ft 11 kts 114°
2026-04-22 06:30 36.84810 117.21230 83 ft 12 kts 114°
2026-04-22 06:30 36.84788 117.21319 83 ft 10 kts 95°
2026-04-22 06:30 36.84748 117.21375 83 ft 9 kts 172°
2026-04-22 06:30 36.84685 117.21375 83 ft 9 kts 180°
2026-04-22 06:31 36.84607 117.21375 83 ft 12 kts 180°
2026-04-22 06:31 36.84507 117.21375 83 ft 15 kts 180°
2026-04-22 06:31 36.84391 117.21375 83 ft 16 kts 179°
2026-04-22 06:31 36.84278 117.21375 83 ft 15 kts 180°
2026-04-22 06:32 36.84179 117.21375 83 ft 9 kts 179°
2026-04-22 06:32 36.84130 117.21392 83 ft 7 kts 130°
2026-04-22 06:32 36.84118 117.21448 83 ft 6 kts 90°
2026-04-22 06:32 36.84119 117.21503 83 ft 6 kts 89°
2026-04-22 06:33 36.84120 117.21567 83 ft 6 kts 89°
2026-04-22 06:33 36.84145 117.21599 83 ft 5 kts 13°
2026-04-22 06:33 36.84163 117.21600 83 ft 0 kts 360°
2026-04-22 06:33 36.84165 117.21600 83 ft 2 kts 360°
2026-04-22 06:34 36.84348 117.21600 83 ft 61 kts
2026-04-22 06:34 36.85009 117.21600 83 ft 125 kts
2026-04-22 06:34 36.86044 117.21594 187 ft 165 kts
2026-04-22 06:34 36.87164 117.21610 884 ft 161 kts
2026-04-22 06:35 36.88262 117.21723 1571 ft 161 kts
2026-04-22 06:35 36.89373 117.21761 2120 ft 160 kts
2026-04-22 06:35 36.90498 117.21742 2552 ft 164 kts
2026-04-22 06:35 36.91640 117.21715 2994 ft 166 kts
2026-04-22 06:36 36.92817 117.21697 3428 ft 173 kts
2026-04-22 06:36 36.94054 117.21674 3827 ft 184 kts
2026-04-22 06:36 36.95383 117.21645 4169 ft 201 kts
2026-04-22 06:36 36.96831 117.21613 4616 ft 213 kts
2026-04-22 06:37 36.98363 117.21590 5005 ft 229 kts
2026-04-22 06:37 37.00016 117.21595 5444 ft 244 kts
2026-04-22 06:37 37.01783 117.21606 5962 ft 256 kts
2026-04-22 06:37 37.03581 117.21609 6548 ft 265 kts
2026-04-22 06:38 37.05436 117.21606 7289 ft 268 kts
2026-04-22 06:38 37.07301 117.21606 7782 ft 270 kts
2026-04-22 06:38 37.09203 117.21605 7882 ft 274 kts
2026-04-22 06:38 37.11110 117.21602 7879 ft 269 kts
2026-04-22 06:39 37.12987 117.21600 7876 ft 269 kts
2026-04-22 06:39 37.14877 117.21600 7878 ft 270 kts
2026-04-22 06:39 37.16758 117.21600 7878 ft 269 kts
2026-04-22 06:39 37.18641 117.21600 7877 ft 269 kts
2026-04-22 06:40 37.20512 117.21602 7879 ft 269 kts
2026-04-22 06:40 37.22384 117.21603 7882 ft 271 kts
2026-04-22 06:40 37.24256 117.21602 7881 ft 269 kts
2026-04-22 06:40 37.26125 117.21727 7878 ft 267 kts 12°
2026-04-22 06:41 37.27850 117.22538 7881 ft 267 kts 35°
2026-04-22 06:41 37.29141 117.24196 7883 ft 267 kts 57°
2026-04-22 06:41 37.29990 117.26305 7888 ft 266 kts 64°
2026-04-22 06:41 37.30737 117.28434 7882 ft 266 kts 65°
2026-04-22 06:42 37.31501 117.30591 7882 ft 268 kts 64°
2026-04-22 06:42 37.32252 117.32697 7884 ft 264 kts 64°
2026-04-22 06:42 37.33008 117.34811 7888 ft 269 kts 64°
2026-04-22 06:42 37.33769 117.36942 7885 ft 267 kts 64°
2026-04-22 06:43 37.34529 117.39075 7887 ft 269 kts 64°
2026-04-22 06:43 37.35278 117.41235 7885 ft 267 kts 68°
2026-04-22 06:43 37.35799 117.43527 8044 ft 282 kts 77°
2026-04-22 06:43 37.36114 117.45886 9085 ft 274 kts 78°
2026-04-22 06:44 37.36394 117.48267 9799 ft 279 kts 78°
2026-04-22 06:44 37.36689 117.50674 10441 ft 288 kts 77°
2026-04-22 06:44 37.37019 117.53211 10902 ft 303 kts 77°
2026-04-22 06:44 37.37369 117.55892 11331 ft 320 kts 77°
2026-04-22 06:45 37.37735 117.58711 11777 ft 335 kts 77°
2026-04-22 06:45 37.38119 117.61678 12202 ft 352 kts 77°
2026-04-22 06:45 37.38515 117.64748 12659 ft 366 kts 77°
2026-04-22 06:45 37.38925 117.67944 13310 ft 375 kts 78°
2026-04-22 06:46 37.39343 117.71218 14017 ft 381 kts 78°
2026-04-22 06:46 37.39761 117.74506 14617 ft 391 kts 78°
2026-04-22 06:46 37.40196 117.77921 15262 ft 400 kts 78°
2026-04-22 06:46 37.40640 117.81413 15907 ft 408 kts 78°
2026-04-22 06:47 37.41087 117.84936 16544 ft 415 kts 79°
2026-04-22 06:47 37.41542 117.88527 17162 ft 422 kts 79°
2026-04-22 06:47 37.42006 117.92208 17716 ft 431 kts 79°
2026-04-22 06:47 37.42474 117.95916 18301 ft 438 kts 79°
2026-04-22 06:48 37.42948 117.99694 18931 ft 443 kts 79°
2026-04-22 06:48 37.43432 118.03563 19639 ft 447 kts 79°
2026-04-22 06:48 37.43916 118.07443 20167 ft 455 kts 79°
2026-04-22 06:48 37.44402 118.11348 20758 ft 461 kts 79°
2026-04-22 06:49 37.44897 118.15338 21346 ft 466 kts 79°
2026-04-22 06:49 37.45396 118.19365 21909 ft 471 kts 79°
2026-04-22 06:49 37.45902 118.23455 22603 ft 472 kts 79°
2026-04-22 06:49 37.46243 118.26178 23161 ft 471 kts 79°
2026-04-22 06:50 37.46923 118.31541 24086 ft 471 kts 80°
2026-04-22 06:50 37.47445 118.35628 24533 ft 476 kts 79°
2026-04-22 06:50 37.47972 118.39759 24572 ft 480 kts 79°
2026-04-22 06:50 37.48499 118.43907 24567 ft 475 kts 79°
2026-04-22 06:51 37.49021 118.48029 24576 ft 476 kts 80°
2026-04-22 06:51 37.49541 118.52158 24573 ft 477 kts 79°
2026-04-22 06:51 37.50057 118.56265 24566 ft 475 kts 79°
2026-04-22 06:51 37.50571 118.60370 24575 ft 475 kts 80°
2026-04-22 06:52 37.51088 118.64516 24580 ft 478 kts 79°
2026-04-22 06:52 37.51602 118.68647 24586 ft 476 kts 80°
2026-04-22 06:52 37.52113 118.72763 24573 ft 479 kts 81°
2026-04-22 06:52 37.52619 118.76859 24583 ft 480 kts 81°
2026-04-22 06:53 37.53113 118.81025 24581 ft 477 kts 82°
2026-04-22 06:53 37.53505 118.85156 24590 ft 478 kts 84°
2026-04-22 06:53 37.53824 118.89278 24585 ft 477 kts 84°
2026-04-22 06:53 37.54110 118.93464 24592 ft 478 kts 84°
2026-04-22 06:54 37.54385 118.97635 24591 ft 479 kts 85°
2026-04-22 06:54 37.54657 119.01771 24587 ft 480 kts 84°
2026-04-22 06:54 37.54938 119.05984 24585 ft 478 kts 85°
2026-04-22 06:54 37.55220 119.10138 24586 ft 478 kts 84°
2026-04-22 06:55 37.55506 119.14297 24596 ft 479 kts 84°
2026-04-22 06:55 37.55797 119.18433 24584 ft 479 kts 84°
2026-04-22 06:55 37.56090 119.22590 24593 ft 476 kts 84°
2026-04-22 06:55 37.56384 119.26759 24592 ft 477 kts 84°
2026-04-22 06:56 37.56676 119.30888 24595 ft 479 kts 84°
2026-04-22 06:56 37.56972 119.35053 24597 ft 479 kts 84°
2026-04-22 06:56 37.57263 119.39191 24596 ft 477 kts 84°
2026-04-22 06:56 37.57555 119.43351 24594 ft 477 kts 84°
2026-04-22 06:57 37.57846 119.47491 24584 ft 478 kts 84°
2026-04-22 06:57 37.58141 119.51709 24595 ft 481 kts 84°
2026-04-22 06:57 37.58430 119.55903 24589 ft 480 kts 84°
2026-04-22 06:57 37.58708 119.60050 24596 ft 480 kts 84°
2026-04-22 06:58 37.58982 119.64223 24598 ft 479 kts 84°
2026-04-22 06:58 37.59264 119.68426 24600 ft 479 kts 85°
2026-04-22 06:58 37.59555 119.72573 24601 ft 479 kts 84°
2026-04-22 06:58 37.59869 119.76792 24589 ft 481 kts 83°
2026-04-22 06:59 37.60184 119.80941 24606 ft 479 kts 84°
2026-04-22 06:59 37.60503 119.85103 24594 ft 479 kts 84°
2026-04-22 06:59 37.60823 119.89307 24598 ft 481 kts 84°
2026-04-22 06:59 37.61137 119.93451 24592 ft 482 kts 83°
2026-04-22 07:00 37.61453 119.97656 24596 ft 481 kts 84°
2026-04-22 07:00 37.61765 120.01856 24604 ft 479 kts 84°
2026-04-22 07:00 37.62073 120.06036 24596 ft 483 kts 84°
2026-04-22 07:00 37.62382 120.10260 24602 ft 482 kts 84°
2026-04-22 07:01 37.62684 120.14400 24597 ft 478 kts 84°
2026-04-22 07:01 37.62984 120.18555 24604 ft 480 kts 84°
2026-04-22 07:01 37.63285 120.22764 24605 ft 479 kts 84°
2026-04-22 07:01 37.63581 120.26925 24589 ft 479 kts 84°
2026-04-22 07:02 37.63879 120.31139 24602 ft 484 kts 84°
2026-04-22 07:02 37.64175 120.35340 24603 ft 481 kts 84°
2026-04-22 07:02 37.64469 120.39503 24599 ft 480 kts 84°
2026-04-22 07:02 37.64865 120.43714 24602 ft 483 kts 79°
2026-04-22 07:03 37.65623 120.47794 24605 ft 480 kts 69°
2026-04-22 07:03 37.66992 120.51593 24608 ft 474 kts 54°
2026-04-22 07:03 37.68871 120.54928 24602 ft 464 kts 43°
2026-04-22 07:03 37.71095 120.57863 24602 ft 460 kts 37°
2026-04-22 07:04 37.73500 120.60487 24610 ft 453 kts 30°
2026-04-22 07:04 37.76049 120.62735 24597 ft 451 kts 25°
2026-04-22 07:04 37.78759 120.64805 24604 ft 448 kts 22°
2026-04-22 07:04 37.81461 120.66736 24605 ft 445 kts 21°
2026-04-22 07:05 37.84165 120.68621 24602 ft 447 kts 21°
2026-04-22 07:05 37.86882 120.70519 24605 ft 446 kts 21°
2026-04-22 07:05 37.89609 120.72450 24607 ft 446 kts 22°
2026-04-22 07:05 37.92302 120.74385 24441 ft 449 kts 22°
2026-04-22 07:06 37.95025 120.76356 24212 ft 463 kts 23°
2026-04-22 07:06 37.97879 120.78432 23972 ft 473 kts 23°
2026-04-22 07:06 38.00693 120.80505 23729 ft 468 kts 24°
2026-04-22 07:06 38.03494 120.82596 23504 ft 459 kts 24°
2026-04-22 07:07 38.06247 120.84664 23255 ft 457 kts 24°
2026-04-22 07:07 38.08980 120.86719 23024 ft 460 kts 24°
2026-04-22 07:07 38.11748 120.88802 22789 ft 458 kts 24°
2026-04-22 07:07 38.14484 120.90865 22550 ft 448 kts 24°
2026-04-22 07:08 38.17108 120.92851 22157 ft 441 kts 24°
2026-04-22 07:08 38.19746 120.94846 21589 ft 437 kts 25°
2026-04-22 07:08 38.22249 120.96914 21376 ft 428 kts 30°
2026-04-22 07:08 38.24458 120.99384 21160 ft 423 kts 42°
2026-04-22 07:09 38.26190 121.02399 20974 ft 417 kts 55°
2026-04-22 07:09 38.27507 121.05624 20735 ft 410 kts 60°
2026-04-22 07:09 38.28678 121.08876 20280 ft 407 kts 62°
2026-04-22 07:09 38.29813 121.12190 19797 ft 404 kts 62°
2026-04-22 07:10 38.30902 121.15425 19417 ft 398 kts 62°
2026-04-22 07:10 38.31978 121.18625 18983 ft 393 kts 62°
2026-04-22 07:10 38.33047 121.21788 18500 ft 389 kts 62°
2026-04-22 07:10 38.34118 121.24944 18069 ft 384 kts 62°
2026-04-22 07:11 38.35173 121.28033 17666 ft 378 kts 62°
2026-04-22 07:11 38.36217 121.31073 17207 ft 374 kts 62°
2026-04-22 07:11 38.37257 121.34096 16741 ft 371 kts 62°
2026-04-22 07:11 38.38272 121.37043 16394 ft 361 kts 61°
2026-04-22 07:12 38.39251 121.39899 16016 ft 345 kts 61°
2026-04-22 07:12 38.40192 121.42638 15642 ft 331 kts 60°
2026-04-22 07:12 38.41253 121.45124 15373 ft 309 kts 49°
2026-04-22 07:12 38.42671 121.47070 14938 ft 291 kts 32°
2026-04-22 07:13 38.44309 121.48505 14553 ft 284 kts 27°
2026-04-22 07:13 38.45990 121.49828 14093 ft 286 kts 27°
2026-04-22 07:13 38.47680 121.51161 13761 ft 282 kts 27°
2026-04-22 07:13 38.49317 121.52490 13419 ft 279 kts 28°
2026-04-22 07:14 38.50948 121.53838 13038 ft 278 kts 28°
2026-04-22 07:14 38.52561 121.55177 12657 ft 277 kts 28°
2026-04-22 07:14 38.54180 121.56523 12268 ft 276 kts 29°
2026-04-22 07:14 38.55774 121.57851 11900 ft 274 kts 29°
2026-04-22 07:15 38.57379 121.59189 11550 ft 272 kts 29°
2026-04-22 07:15 38.58937 121.60486 11306 ft 265 kts 29°
2026-04-22 07:15 38.60487 121.61683 10977 ft 255 kts 25°
2026-04-22 07:15 38.62030 121.62649 10760 ft 241 kts 21°
2026-04-22 07:16 38.63537 121.63499 10452 ft 233 kts 20°
2026-04-22 07:16 38.65016 121.64336 10057 ft 229 kts 21°
2026-04-22 07:16 38.66463 121.65179 9611 ft 228 kts 22°
2026-04-22 07:16 38.67889 121.66021 9189 ft 229 kts 22°
2026-04-22 07:17 38.69340 121.66879 8862 ft 227 kts 23°
2026-04-22 07:17 38.70752 121.67714 8570 ft 225 kts 24°
2026-04-22 07:17 38.72188 121.68563 8245 ft 225 kts 24°
2026-04-22 07:17 38.73593 121.69398 7971 ft 223 kts 24°
2026-04-22 07:18 38.75006 121.70236 7681 ft 223 kts 24°
2026-04-22 07:18 38.76409 121.71069 7379 ft 223 kts 25°
2026-04-22 07:18 38.77814 121.71901 7100 ft 221 kts 25°
2026-04-22 07:18 38.79206 121.72726 6797 ft 220 kts 26°
2026-04-22 07:19 38.80601 121.73555 6471 ft 221 kts 26°
2026-04-22 07:19 38.82010 121.74391 6152 ft 220 kts 26°
2026-04-22 07:19 38.83396 121.75214 5893 ft 219 kts 26°
2026-04-22 07:19 38.84769 121.76031 5604 ft 219 kts 26°
2026-04-22 07:20 38.86198 121.76701 5315 ft 219 kts 13°
2026-04-22 07:20 38.87714 121.76947 5027 ft 220 kts
2026-04-22 07:20 38.89240 121.77065 4755 ft 218 kts
2026-04-22 07:20 38.90764 121.77216 4344 ft 218 kts
2026-04-22 07:21 38.92225 121.77340 4125 ft 207 kts
2026-04-22 07:21 38.93617 121.76947 3725 ft 209 kts 332°
2026-04-22 07:21 38.94627 121.75616 3279 ft 214 kts 297°
2026-04-22 07:21 38.95003 121.73776 2974 ft 214 kts 278°
2026-04-22 07:22 38.95153 121.71882 2648 ft 213 kts 277°
2026-04-22 07:22 38.95289 121.70070 2373 ft 198 kts 277°
2026-04-22 07:22 38.95429 121.68380 2111 ft 183 kts 277°
2026-04-22 07:22 38.95554 121.66817 1919 ft 165 kts 277°
2026-04-22 07:23 38.95663 121.65395 1637 ft 155 kts 277°
2026-04-22 07:23 38.95769 121.64067 1440 ft 145 kts 278°
2026-04-22 07:23 38.95871 121.62787 1258 ft 145 kts 277°
2026-04-22 07:23 38.95970 121.61508 1064 ft 142 kts 277°
2026-04-22 07:24 38.96068 121.60268 883 ft 141 kts 277°
2026-04-22 07:24 38.96166 121.59014 701 ft 141 kts 276°
2026-04-22 07:24 38.96257 121.57755 513 ft 140 kts 276°
2026-04-22 07:24 38.96360 121.56513 337 ft 139 kts 276°
2026-04-22 07:25 38.96458 121.55281 134 ft 138 kts 277°
2026-04-22 07:25 38.96540 121.54218 114 ft 85 kts 276°
2026-04-22 07:25 38.96579 121.53715 114 ft 40 kts 276°
2026-04-22 07:25 38.96595 121.53492 114 ft 19 kts 269°
2026-04-22 07:26 38.96572 121.53327 114 ft 18 kts 253°
2026-04-22 07:26 38.96526 121.53182 114 ft 17 kts 247°
2026-04-22 07:26 38.96487 121.53065 114 ft 12 kts 245°
2026-04-22 07:26 38.96452 121.52966 114 ft 10 kts 250°
2026-04-22 07:27 38.96444 121.52891 114 ft 7 kts 263°
2026-04-22 07:27 38.96407 121.52856 114 ft 6 kts 187°
2026-04-22 07:27 38.96363 121.52851 114 ft 5 kts 186°
2026-04-22 07:27 38.96341 121.52837 114 ft 3 kts 243°
2026-04-22 07:28 38.96339 121.52790 114 ft 2 kts 275°
2026-04-22 07:28 38.96339 121.52783 114 ft 0 kts 275°